| time (UTC) | temp F | wind direction | speed MPH | gust MPH | rain 1hr in | rain 24hr in | rain mn in | humidity % | barometer mb |
| 20260904181524 | 68 | 292 | 4.0 | 9.0 | 0.00 | 0.00 | 0.00 | 44 | 1010.9 |
| 20260904180019 | 66 | 290 | 4.0 | 8.0 | 0.00 | 0.00 | 0.00 | 45 | 1010.9 |
| 20260904174525 | 66 | 299 | 1.0 | 9.0 | 0.00 | 0.00 | 0.00 | 47 | 1010.8 |
| 20260904173014 | 66 | 276 | 1.0 | 7.0 | 0.00 | 0.00 | 0.00 | 46 | 1010.5 |
| 20260904171513 | 65 | 313 | 1.0 | 4.0 | 0.00 | 0.00 | 0.00 | 45 | 1010.3 |
| 20260904170011 | 63 | 313 | 2.0 | 4.0 | 0.00 | 0.00 | 0.00 | 48 | 1010.2 |
| 20260904164512 | 63 | 277 | 4.0 | 8.0 | 0.00 | 0.00 | 0.00 | 49 | 1010.3 |
| 20260904163013 | 63 | 279 | 2.0 | 7.0 | 0.00 | 0.00 | 0.00 | 50 | 1010.4 |
| 20260904161509 | 63 | 281 | 1.0 | 7.0 | 0.00 | 0.00 | 0.00 | 49 | 1010.1 |
| 20260904160008 | 63 | 215 | 5.0 | 10.0 | 0.00 | 0.00 | 0.00 | 45 | 1010.1 |
| 20260904154509 | 64 | 221 | 8.0 | 10.0 | 0.00 | 0.00 | 0.00 | 45 | 1009.9 |
| 20260904153007 | 64 | 165 | 5.0 | 11.0 | 0.00 | 0.00 | 0.00 | 45 | 1009.3 |
| 20260904151507 | 65 | 132 | 5.0 | 11.0 | 0.00 | 0.00 | 0.00 | 44 | 1008.9 |
| 20260904150004 | 63 | 74 | 7.0 | 11.0 | 0.00 | 0.00 | 0.00 | 47 | 1008.7 |
| 20260904144620 | 63 | 76 | 8.0 | 10.0 | 0.00 | 0.00 | 0.00 | 47 | 1008.7 |
| 20260904143056 | 60 | 82 | 3.0 | 7.0 | 0.00 | 0.00 | 0.00 | 51 | 1008.8 |
| 20260904141554 | 59 | 290 | 2.0 | 4.0 | 0.00 | 0.00 | 0.00 | 57 | 1008.9 |
| 20260904140053 | 59 | 245 | 1.0 | 10.0 | 0.00 | 0.00 | 0.00 | 54 | 1008.9 |
| 20260904134550 | 55 | 76 | 4.0 | 7.0 | 0.00 | 0.00 | 0.00 | 65 | 1008.7 |
| 20260904133049 | 54 | 26 | 1.0 | 3.0 | 0.00 | 0.00 | 0.00 | 65 | 1008.9 |
| 20260904131545 | 53 | 26 | 2.0 | 4.0 | 0.00 | 0.00 | 0.00 | 65 | 1009.0 |
| 20260904130043 | 51 | 26 | 2.0 | 4.0 | 0.00 | 0.00 | 0.00 | 66 | 1008.7 |
| 20260904124549 | 53 | 26 | 2.0 | 5.0 | 0.00 | 0.00 | 0.00 | 61 | 1008.4 |
| 20260904123042 | 54 | 26 | 3.0 | 8.0 | 0.00 | 0.00 | 0.00 | 60 | 1008.4 |
| 20260904121537 | 54 | 22 | 4.0 | 10.0 | 0.00 | 0.00 | 0.00 | 60 | 1008.5 |
| 20260904120037 | 54 | 9 | 7.0 | 10.0 | 0.00 | 0.00 | 0.00 | 58 | 1008.6 |
| 20260904114540 | 54 | 355 | 8.0 | 10.0 | 0.00 | 0.00 | 0.00 | 58 | 1008.7 |
| 20260904113040 | 55 | 15 | 8.0 | 10.0 | 0.00 | 0.00 | 0.00 | 57 | 1008.7 |
| 20260904111533 | 57 | 18 | 6.0 | 11.0 | 0.00 | 0.00 | 0.00 | 54 | 1008.6 |
| 20260904110032 | 57 | 11 | 8.0 | 12.0 | 0.00 | 0.00 | 0.00 | 53 | 1008.7 |
| 20260904104532 | 57 | 355 | 4.0 | 11.0 | 0.00 | 0.00 | 0.00 | 54 | 1008.8 |
| 20260904103036 | 56 | 11 | 9.0 | 13.0 | 0.00 | 0.00 | 0.00 | 54 | 1009.1 |
| 20260904101526 | 55 | 15 | 10.0 | 13.0 | 0.00 | 0.00 | 0.00 | 58 | 1009.2 |
| 20260904100025 | 54 | 355 | 8.0 | 13.0 | 0.00 | 0.00 | 0.00 | 59 | 1009.3 |
| 20260904094522 | 54 | 360 | 7.0 | 10.0 | 0.00 | 0.00 | 0.00 | 59 | 1009.5 |
| 20260904093022 | 56 | 342 | 3.0 | 11.0 | 0.00 | 0.00 | 0.00 | 57 | 1009.5 |
| 20260904091522 | 56 | 29 | 7.0 | 13.0 | 0.00 | 0.00 | 0.00 | 56 | 1009.5 |
| 20260904090019 | 56 | 55 | 8.0 | 13.0 | 0.00 | 0.00 | 0.00 | 56 | 1009.6 |
| 20260904084518 | 57 | 63 | 11.0 | 16.0 | 0.00 | 0.00 | 0.00 | 54 | 1009.8 |
| 20260904083015 | 58 | 53 | 8.0 | 12.0 | 0.00 | 0.00 | 0.00 | 53 | 1009.8 |
| 20260904081514 | 58 | 35 | 2.0 | 8.0 | 0.00 | 0.00 | 0.00 | 53 | 1009.9 |
| 20260904080012 | 59 | 32 | 5.0 | 9.0 | 0.00 | 0.00 | 0.00 | 52 | 1010.1 |
| 20260904074511 | 51 | 355 | 2.0 | 5.0 | 0.00 | 0.00 | 0.00 | 69 | 1010.2 |
| 20260904073004 | 51 | 286 | 3.0 | 4.0 | 0.00 | 0.00 | 0.00 | 67 | 1010.4 |
| 20260904071602 | 53 | 286 | 0.0 | 3.0 | 0.00 | 0.00 | 0.00 | 65 | 1010.5 |
| 20260904070112 | 55 | 282 | 2.0 | 5.0 | 0.00 | 0.00 | 0.00 | 60 | 1010.6 |
| 20260904064558 | 55 | 360 | 5.0 | 8.0 | 0.00 | 0.00 | 0.00 | 59 | 1010.6 |
| 20260904063059 | 55 | 343 | 4.0 | 9.0 | 0.00 | 0.00 | 0.00 | 60 | 1010.6 |
| 20260904061601 | 54 | 314 | 3.0 | 8.0 | 0.00 | 0.00 | 0.00 | 62 | 1010.7 |
| 20260904060048 | 54 | 303 | 3.0 | 5.0 | 0.00 | 0.00 | 0.00 | 62 | 1010.7 |
| 20260904054550 | 54 | 303 | 3.0 | 5.0 | 0.00 | 0.00 | 0.00 | 62 | 1010.8 |
| 20260904053046 | 54 | 303 | 3.0 | 4.0 | 0.00 | 0.00 | 0.00 | 60 | 1011.1 |
| 20260904051549 | 54 | 286 | 2.0 | 3.0 | 0.00 | 0.00 | 0.00 | 63 | 1011.3 |
| 20260904050047 | 53 | 286 | 2.0 | 4.0 | 0.00 | 0.00 | 0.00 | 64 | 1011.4 |
| 20260904044546 | 52 | 286 | 2.0 | 3.0 | 0.00 | 0.00 | 0.00 | 65 | 1011.4 |
| 20260904043056 | 52 | 286 | 1.0 | 2.0 | 0.00 | 0.00 | 0.00 | 64 | 1011.3 |
| 20260904041543 | 51 | 286 | 1.0 | 3.0 | 0.00 | 0.00 | 0.00 | 65 | 1011.1 |
| 20260904040043 | 51 | 286 | 2.0 | 3.0 | 0.00 | 0.00 | 0.00 | 63 | 1011.0 |
| 20260904034549 | 52 | 286 | 2.0 | 5.0 | 0.00 | 0.00 | 0.00 | 62 | 1010.9 |
| 20260904033042 | 51 | 355 | 0.0 | 2.0 | 0.00 | 0.00 | 0.00 | 62 | 1011.1 |
| 20260904031544 | 53 | 355 | 2.0 | 4.0 | 0.00 | 0.00 | 0.00 | 59 | 1011.1 |
| 20260904030040 | 56 | 355 | 1.0 | 4.0 | 0.00 | 0.00 | 0.00 | 54 | 1011.1 |
| 20260904024538 | 58 | 355 | 3.0 | 5.0 | 0.00 | 0.00 | 0.00 | 51 | 1010.9 |
| 20260904023035 | 58 | 320 | 1.0 | 3.0 | 0.00 | 0.00 | 0.00 | 51 | 1010.7 |
| 20260904021540 | 60 | 327 | 2.0 | 6.0 | 0.00 | 0.00 | 0.00 | 49 | 1010.4 |
| 20260904020034 | 62 | 345 | 6.0 | 9.0 | 0.00 | 0.00 | 0.00 | 46 | 1010.3 |
| 20260904014539 | 64 | 355 | 4.0 | 6.0 | 0.00 | 0.00 | 0.00 | 44 | 1010.4 |
| 20260904013032 | 66 | 336 | 4.0 | 10.0 | 0.00 | 0.00 | 0.00 | 42 | 1010.3 |
| 20260904011534 | 68 | 298 | 6.0 | 9.0 | 0.00 | 0.00 | 0.00 | 40 | 1010.4 |
| 20260904010032 | 69 | 318 | 6.0 | 11.0 | 0.00 | 0.00 | 0.00 | 39 | 1010.3 |
| 20260904004534 | 70 | 297 | 5.0 | 11.0 | 0.00 | 0.00 | 0.00 | 38 | 1010.3 |
| 20260904003032 | 70 | 291 | 8.0 | 13.0 | 0.00 | 0.00 | 0.00 | 37 | 1010.2 |
| 20260904001529 | 71 | 279 | 10.0 | 16.0 | 0.00 | 0.00 | 0.00 | 37 | 1010.2 |
| 20260904000106 | 72 | 288 | 8.0 | 14.0 | 0.00 | 0.00 | 0.00 | 35 | 1010.0 |
| 20260903234524 | 72 | 265 | 8.0 | 17.0 | 0.00 | 0.03 | 0.00 | 36 | 1009.8 |
| 20260903233022 | 73 | 285 | 7.0 | 17.0 | 0.00 | 0.03 | 0.00 | 36 | 1009.8 |
| 20260903231522 | 73 | 283 | 6.0 | 18.0 | 0.00 | 0.03 | 0.00 | 36 | 1009.9 |
| 20260903230025 | 73 | 271 | 6.0 | 18.0 | 0.00 | 0.03 | 0.00 | 37 | 1009.8 |
| 20260903224536 | 74 | 296 | 7.0 | 18.0 | 0.00 | 0.06 | 0.00 | 37 | 1009.6 |
| 20260903223019 | 73 | 298 | 6.0 | 14.0 | 0.00 | 0.06 | 0.00 | 39 | 1009.3 |
| 20260903221520 | 73 | 281 | 9.0 | 18.0 | 0.00 | 0.06 | 0.00 | 37 | 1009.3 |
| 20260903220019 | 73 | 284 | 3.0 | 10.0 | 0.00 | 0.06 | 0.00 | 36 | 1009.1 |
| 20260903214525 | 75 | 298 | 2.0 | 11.0 | 0.00 | 0.06 | 0.00 | 35 | 1009.0 |
| 20260903213031 | 75 | 294 | 5.0 | 12.0 | 0.00 | 0.06 | 0.00 | 34 | 1008.9 |
| 20260903211516 | 74 | 284 | 4.0 | 10.0 | 0.00 | 0.06 | 0.00 | 36 | 1008.8 |
| 20260903210015 | 75 | 263 | 7.0 | 16.0 | 0.00 | 0.06 | 0.00 | 33 | 1008.8 |
| 20260903204513 | 73 | 246 | 4.0 | 12.0 | 0.00 | 0.06 | 0.00 | 37 | 1008.8 |
| 20260903203011 | 74 | 277 | 3.0 | 12.0 | 0.00 | 0.06 | 0.00 | 35 | 1009.0 |
| 20260903201509 | 72 | 242 | 3.0 | 11.0 | 0.00 | 0.06 | 0.00 | 39 | 1009.0 |
| 20260903200008 | 71 | 207 | 4.0 | 10.0 | 0.00 | 0.06 | 0.00 | 39 | 1009.1 |
| 20260903194510 | 72 | 275 | 6.0 | 13.0 | 0.00 | 0.06 | 0.00 | 39 | 1009.1 |
| 20260903193005 | 71 | 239 | 9.0 | 16.0 | 0.00 | 0.06 | 0.00 | 38 | 1009.1 |
| 20260903191507 | 72 | 266 | 4.0 | 19.0 | 0.00 | 0.06 | 0.00 | 39 | 1009.1 |
| 20260903190002 | 73 | 238 | 8.0 | 31.0 | 0.00 | 0.06 | 0.00 | 37 | 1009.0 |
| 20260903184600 | 73 | 219 | 5.0 | 17.0 | 0.00 | 0.06 | 0.00 | 38 | 1008.9 |
| 20260903183057 | 71 | 213 | 10.0 | 15.0 | 0.00 | 0.06 | 0.00 | 38 | 1008.9 |